Home > Weather > Maraimalai Nagar > Past weeks

Flag for India Past Weather in Maraimalai Nagar, Tamil Nadu, India — Yesterday and Last 2 Weeks

Now
93 °F

Scattered clouds.


Feels Like: 103 °F
Forecast: 79 / 101 °F
Wind: 8 mph from West

Location: Madras / Minambakkam

Current Time: May 29, 2016 at 11:30:30 AM

Latest Report: May 29, 2016 at 10:30 AM


Visibility: 5 mi

Pressure: 29.71 "Hg

Humidity: 53%

Dew Point: 73 °F

Location of Maraimalai NagarLocation

Past Weather in Maraimalai Nagar — Graph

°F

Maraimalai Nagar Temperature Yesterday

Maximum temperature yesterday: 102 °F (at 1:30 PM)
Minimum temperature yesterday: 82 °F (at 2:00 AM)
Average temperature yesterday: 91 °F

High & Low Weather Summary for the Past Weeks

 TemperatureHumidityPressure
High106 °F (May 25, 2:30 PM)100% (May 17, 6:00 AM)29.80 "Hg (May 17, 6:00 AM)
Low77 °F (May 17, 6:00 AM)30% (May 25, 3:00 PM)29.42 "Hg (May 18, 1:30 AM)
Average89 °F68%29.62 "Hg
* Reported May 14 10:30 AM — May 29 10:30 AM, Maraimalai Nagar, Weather by CustomWeather, © 2016

Note: Actual official high and low records may vary slightly from our data, if they occured in-between our weather recording intervals... More about our weather records

Advertising

Maraimalai Nagar Weather History for the Previous 24 Hours

Scroll right to see more
 ConditionsComfort  
Time TempWeatherWind HumidityBarometerVisibility
10:30 AM
Sun, May 29
93 °FScattered clouds.8 mph53%29.71 "Hg5 mi
10:00 AM93 °FScattered clouds.8 mph53%29.71 "Hg5 mi
9:30 AM91 °FScattered clouds.9 mph52%29.71 "Hg5 mi
9:00 AM91 °FScattered clouds.9 mph52%29.71 "Hg5 mi
8:30 AM90 °FScattered clouds.9 mph59%29.71 "Hg5 mi
8:00 AM88 °FScattered clouds.7 mph59%29.71 "Hg5 mi
7:30 AM88 °FScattered clouds.12 mph59%29.71 "Hg5 mi
7:00 AM86 °FScattered clouds.7 mph62%29.68 "Hg5 mi
6:30 AM84 °FScattered clouds.7 mph66%29.68 "Hg4 mi
6:00 AM84 °FPassing clouds.6 mph70%29.65 "Hg4 mi
5:30 AM84 °FPassing clouds.8 mph70%29.65 "Hg4 mi
5:00 AM82 °FPassing clouds.7 mph74%29.65 "Hg4 mi
4:30 AM84 °FPassing clouds.8 mph70%29.62 "Hg4 mi
4:00 AM84 °FPassing clouds.8 mph70%29.62 "Hg4 mi
3:30 AM84 °FPassing clouds.9 mph70%29.62 "Hg4 mi
3:00 AM84 °FPassing clouds.12 mph70%29.62 "Hg4 mi
2:30 AM86 °FPassing clouds.9 mph62%29.62 "Hg4 mi
2:00 AM86 °FPassing clouds.9 mph62%29.62 "Hg4 mi
1:30 AM86 °FPassing clouds.7 mph66%29.65 "Hg4 mi
1:00 AM86 °FPassing clouds.6 mph66%29.68 "Hg4 mi
12:30 AM86 °FPassing clouds.6 mph66%29.68 "Hg4 mi
12:00 AM86 °FPassing clouds.6 mph70%29.68 "Hg4 mi
11:30 PM
Sat, May 28
88 °FPassing clouds.6 mph66%29.68 "Hg4 mi
11:00 PM88 °FPassing clouds.5 mph62%29.68 "Hg4 mi
10:30 PM88 °FPassing clouds.No wind62%29.68 "Hg4 mi
10:00 PM88 °FPassing clouds.5 mph59%29.68 "Hg4 mi
9:30 PM90 °FPassing clouds.5 mph52%29.68 "Hg4 mi
9:00 PM90 °FPassing clouds.7 mph52%29.68 "Hg4 mi
8:30 PM90 °FPassing clouds.7 mph71%29.68 "Hg4 mi
8:00 PM90 °FPassing clouds.8 mph71%29.65 "Hg4 mi
7:30 PM90 °FPassing clouds.12 mph75%29.65 "Hg4 mi
7:00 PM90 °FPassing clouds.12 mph71%29.62 "Hg4 mi
6:30 PM91 °FPassing clouds.12 mph67%29.62 "Hg4 mi
6:00 PM93 °FPassing clouds.12 mph67%29.59 "Hg4 mi
5:30 PM93 °FPassing clouds.12 mph67%29.59 "Hg4 mi
5:00 PM93 °FPassing clouds.12 mph67%29.59 "Hg4 mi
4:30 PM95 °FPassing clouds.13 mph60%29.59 "Hg4 mi
4:00 PM97 °FPassing clouds.12 mph56%29.59 "Hg4 mi
3:30 PM102 °FPassing clouds.3 mph37%29.59 "Hg5 mi
3:00 PM102 °FPassing clouds.3 mph37%29.62 "Hg5 mi
2:30 PM102 °FPassing clouds.7 mph37%29.62 "Hg5 mi
2:00 PM102 °FPassing clouds.7 mph37%29.65 "Hg5 mi
1:30 PM102 °FPassing clouds.8 mph40%29.65 "Hg5 mi
1:00 PM100 °FPassing clouds.8 mph40%29.65 "Hg5 mi
12:30 PM100 °FPassing clouds.9 mph42%29.68 "Hg5 mi
12:00 PM99 °FPassing clouds.9 mph44%29.68 "Hg5 mi
11:30 AM97 °FPassing clouds.7 mph47%29.68 "Hg5 mi
11:00 AM95 °FPassing clouds.9 mph47%29.71 "Hg4 mi
Weather by CustomWeather, © 2016

See weather overviewHow to use our weather pages